sat.trackr.live / text

‹ back to catalog

STARLINK-34753

NORAD 64946 · 2025-158Q

PAYLOAD ACTIVE UNKNOWN

§ Identity

Operator
Country
US
Launch date
2025-07-27
Launch site
AFWTR
Launch vehicle
Mass (kg)
RCS (m²)

Purposes: comms

External: N2YO · Heavens-Above · Gunter

§ Orbital elements

Epoch: 2026-05-25T02:13:20.847360Z

Period
95.64 min
Inclination
97.4533°
Eccentricity
0.0002291
Mean motion
15.05659482 rev/d
Perigee alt
547.9 km
Apogee alt
551.1 km
Semi-major
6,927.6 km
B*
2.6141e-4
RAAN
9.0354°
Arg perigee
85.9801°
Mean anomaly
274.1688°
Rev number
4,685

§ Raw data

STARLINK-347531 64946U 25158Q   26145.09260240  .00003716  00000+0  26141-3 0  99942 64946  97.4533   9.0354 0002291  85.9801 274.1688 15.05659482 46852

JSON: /api/v1/satellites/64946 · /tle

For live sub-satellite position, see the globe view (requires WebGL).

§ Visibility from observer

Set your observer location to see the next 7 days of passes ≥ 10°. The values pass through the URL so the page stays shareable.

No JS? Fill the form by hand. The geolocation button needs JavaScript.